This demonstration page uses our WeatherBlox Daily Observations layout. Learn more.

Left ArrowRight Arrow

40.92945, -100.16068

Hourly Observations for December 3, 2020

Temp ( °F °C ) Dew Point ( °F °C ) Humidity (%) Winds ( mph kmh ) Pressure ( in mb ) Visibility ( mi km ) Precip ( " mm )
12:15 am 00:15 Cloudy 32 0.2 26 -3.3 78 78 N 10 17 30.48 1032 10 16.0934 0 0
12:35 am 00:35 Cloudy 32 0.1 26 -3.5 77 77 N 15 24 30.48 1032 10 16.0934 0 0
12:55 am 00:55 Cloudy 32 0 26 -3.6 77 77 N 8 13 30.47 1032 10 16.0934 0 0
1:15 am 01:15 Cloudy 31 -0.6 25 -4 78 78 NNW 7 11 30.46 1032 10 16.0934 0 0
1:35 am 01:35 Mostly Cloudy 29 -1.8 24 -4.6 81 81 NNW 7 11 30.48 1032 10 16.0934 0 0
1:55 am 01:55 Partly Cloudy 26 -3.6 22 -5.6 86 86 NW 8 13 30.49 1033 10 16.0934 0 0
2:15 am 02:15 Clear 24 -4.5 20 -6.4 87 87 NW 8 13 30.5 1033 10 16.0934 0 0
2:35 am 02:35 Clear 23 -5 20 -6.5 89 89 NW 8 13 30.51 1033 10 16.0934 0 0
2:55 am 02:55 Clear 22 -5.8 19 -7.1 91 91 NW 9 15 30.5 1033 10 16.0934 0 0
3:15 am 03:15 Clear 21 -6 19 -7.5 89 89 WNW 7 11 30.5 1033 10 16.0934 0 0
3:35 am 03:35 Clear 20 -6.4 18 -7.8 90 90 WNW 6 9 30.49 1033 10 16.0934 0 0
3:55 am 03:55 Clear 21 -6 19 -7.3 91 91 NW 8 13 30.48 1032 10 16.0934 0 0
4:15 am 04:15 Clear 21 -6.2 18 -7.7 89 89 WNW 7 11 30.48 1032 10 16.0934 0 0
4:35 am 04:35 Clear 19 -7.1 17 -8.5 90 90 WNW 6 9 30.49 1033 10 16.0934 0 0
4:55 am 04:55 Clear 19 -7 17 -8.2 91 91 NW 8 13 30.48 1032 10 16.0934 0 0
5:15 am 05:15 Clear 20 -6.8 17 -8.1 91 91 WNW 9 15 30.48 1032 10 16.0934 0 0
5:35 am 05:35 Clear 19 -7.3 16 -8.7 90 90 WNW 9 15 30.48 1032 10 16.0934 0 0
5:55 am 05:55 Clear 19 -7.1 17 -8.6 89 89 WNW 7 11 30.48 1032 10 16.0934 0 0
6:15 am 06:15 Clear 19 -7.2 16 -8.7 89 89 WNW 8 13 30.48 1032 10 16.0934 0 0
6:35 am 06:35 Clear 19 -7.5 16 -9 89 89 WNW 8 13 30.49 1032 10 16.0934 0 0
6:55 am 06:55 Clear 19 -7.1 16 -8.9 87 87 WNW 10 17 30.48 1032 10 16.0934 0 0
7:15 am 07:15 Clear 19 -7.2 16 -9.1 86 86 W 9 15 30.48 1032 10 16.0934 0 0
7:35 am 07:35 Clear 19 -7.5 15 -9.3 87 87 W 7 11 30.49 1032 10 16.0934 0 0
7:55 am 07:55 Sunny 19 -7.1 16 -9.1 86 86 WNW 10 17 30.48 1032 10 16.0934 0 0
8:15 am 08:15 Sunny 20 -6.8 15 -9.2 83 83 W 9 15 30.48 1032 10 16.0934 0 0
8:35 am 08:35 Sunny 20 -6.7 16 -9 84 84 WNW 9 15 30.48 1032 10 16.0934 0 0
8:55 am 08:55 Sunny 21 -6.1 16 -8.7 82 82 W 8 13 30.47 1032 10 16.0934 0 0
9:15 am 09:15 Sunny 23 -5 17 -8.5 77 77 W 10 17 30.46 1031 10 16.0934 0 0
9:35 am 09:35 Sunny 24 -4.3 17 -8.2 75 75 WNW 10 17 30.45 1031 10 16.0934 0 0
9:55 am 09:55 Sunny 27 -3 19 -7.5 71 71 WNW 13 20 30.44 1031 10 16.0934 0 0
10:15 am 10:15 Sunny 28 -2.2 19 -7.3 68 68 WNW 13 20 30.43 1030 10 16.0934 0 0
10:35 am 10:35 Sunny 30 -1.2 20 -6.9 66 66 WNW 10 17 30.4 1029 10 16.0934 0 0
10:55 am 10:55 Sunny 32 -0.2 20 -6.5 63 63 WNW 9 15 30.39 1029 10 16.0934 0 0
11:15 am 11:15 Sunny 33 0.7 20 -6.5 59 59 WNW 13 20 30.37 1028 10 16.0934 0 0
11:35 am 11:35 Sunny 35 1.9 21 -6.2 55 55 WNW 9 15 30.35 1028 10 16.0934 0 0
11:55 am 11:55 Sunny 38 3.1 21 -6.1 51 51 NW 10 17 30.32 1027 10 16.0934 0 0
12:15 pm 12:15 Sunny 40 4.3 20 -6.7 45 45 NW 13 20 30.3 1026 10 16.0934 0 0
12:35 pm 12:35 Sunny 40 4.7 20 -6.4 45 45 WNW 13 20 30.28 1025 10 16.0934 0 0
12:55 pm 12:55 Sunny 42 5.5 20 -6.8 41 41 NW 13 20 30.26 1025 10 16.0934 0 0
1:15 pm 13:15 Sunny 43 6 20 -6.9 39 39 WNW 14 22 30.24 1024 10 16.0934 0 0
1:35 pm 13:35 Sunny 44 6.7 19 -7.1 37 37 WNW 15 24 30.23 1024 10 16.0934 0 0
1:55 pm 13:55 Sunny 45 7 19 -7.3 36 36 WNW 13 20 30.22 1023 10 16.0934 0 0
2:15 pm 14:15 Sunny 45 7.1 19 -7.1 36 36 WNW 15 24 30.21 1023 10 16.0934 0 0
2:35 pm 14:35 Sunny 45 7.2 19 -7.4 35 35 WNW 14 22 30.2 1023 10 16.0934 0 0
2:55 pm 14:55 Sunny 46 7.5 18 -7.6 34 34 W 12 19 30.17 1022 10 16.0934 0 0
3:15 pm 15:15 Sunny 46 7.5 18 -7.8 33 33 WNW 13 20 30.17 1022 10 16.0934 0 0
3:35 pm 15:35 Sunny 46 7.6 17 -8.2 32 32 WNW 15 24 30.16 1021 10 16.0934 0 0
3:55 pm 15:55 Sunny 45 7.4 17 -8.2 32 32 WNW 13 20 30.17 1022 10 16.0934 0 0
4:15 pm 16:15 Sunny 45 7 17 -8.3 33 33 WNW 13 20 30.17 1022 10 16.0934 0 0
4:35 pm 16:35 Sunny 44 6.4 17 -8.2 35 35 WNW 9 15 30.18 1022 10 16.0934 0 0
4:55 pm 16:55 Sunny 41 4.9 17 -8.3 38 38 WNW 9 15 30.19 1022 10 16.0934 0 0
5:15 pm 17:15 Clear 37 3 17 -8.6 43 43 W 9 15 30.2 1023 10 16.0934 0 0
5:35 pm 17:35 Clear 33 0.7 16 -9.1 48 48 WNW 9 15 30.22 1023 7 11.26538 0 0
5:55 pm 17:55 Clear 33 0.6 16 -9 49 49 W 10 17 30.22 1023 10 16.0934 0 0
6:15 pm 18:15 Clear 31 -0.4 15 -9.3 51 51 W 9 15 30.23 1024 10 16.0934 0 0
6:35 pm 18:35 Clear 30 -1.2 15 -9.2 55 55 W 7 11 30.23 1024 10 16.0934 0 0
6:55 pm 18:55 Clear 29 -1.4 15 -9.5 54 54 W 5 7 30.23 1024 10 16.0934 0 0
7:15 pm 19:15 Clear 28 -2.4 15 -9.5 59 59 W 7 11 30.24 1024 10 16.0934 0 0
7:35 pm 19:35 Clear 26 -3.1 14 -9.8 60 60 W 7 11 30.25 1024 10 16.0934 0 0
7:55 pm 19:55 Clear 24 -4.3 14 -10 65 65 WNW 6 9 30.26 1025 10 16.0934 0 0
8:15 pm 20:15 Clear 23 -4.8 14 -9.9 68 68 NW 8 13 30.27 1025 10 16.0934 0 0
8:35 pm 20:35 Clear 25 -4 15 -9.4 66 66 NW 7 11 30.26 1025 10 16.0934 0 0
8:55 pm 20:55 Clear 25 -4.1 15 -9.5 66 66 NW 8 13 30.26 1025 10 16.0934 0 0
9:15 pm 21:15 Clear 24 -4.3 15 -9.3 68 68 WNW 9 15 30.26 1025 10 16.0934 0 0
9:35 pm 21:35 Clear 25 -4 15 -9.2 67 67 WNW 9 15 30.26 1025 10 16.0934 0 0
9:55 pm 21:55 Clear 25 -3.8 16 -8.9 68 68 WNW 8 13 30.26 1025 10 16.0934 0 0
10:15 pm 22:15 Clear 27 -3 15 -9.2 63 63 WNW 9 15 30.24 1024 10 16.0934 0 0
10:35 pm 22:35 Clear 26 -3.4 15 -9.6 63 63 WNW 9 15 30.24 1024 10 16.0934 0 0
10:55 pm 22:55 Clear 28 -2.5 14 -10.1 56 56 WNW 10 17 30.23 1024 10 16.0934 0 0
11:15 pm 23:15 Clear 25 -3.8 14 -10.1 62 62 WNW 8 13 30.25 1024 10 16.0934 0 0
11:35 pm 23:35 Clear 25 -4 14 -10.2 62 62 WNW 8 13 30.25 1024 10 16.0934 0 0
11:55 pm 23:55 Clear 25 -3.7 14 -10.2 61 61 WNW 8 13 30.25 1025 10 16.0934 0 0

Powered by AerisWeather